World > North America > United States > California   City of Carlsbad, CA

Carlsbad, California Regional Weather

Lat: 33.12N, Lon: 117.29W
Wx Zone: CAZ043
Feedback

Carlsbad, CA Regional Weather

Expires:202007100700;;608395
ASUS46 KSGX 100611
RWRSGX

SAN DIEGO HOURLY WEATHER ROUNDUP
NATIONAL WEATHER SERVICE SAN DIEGO CA
1100 PM PDT THU JUL 09 2020

NOTE: "FAIR" INDICATES FEW OR NO CLOUDS BELOW 12,000 FEET WITH NO 
SIGNIFICANT WEATHER AND/OR OBSTRUCTIONS TO VISIBILITY.


CAZ042-043-060-061-PZZ750-775-100700-

GREATER SAN DIEGO AREA
  
CITY           SKY/WX    TMP DP  RH WIND       PRES   REMARKS
SAN DIEGO AP   PTCLDY    67  61  81 NW3       29.95R                  
CHULA VISTA      N/A     67  63  86 CALM      29.85R                  
BROWN FIELD    CLEAR     65  60  84 CALM      29.94R                  
MIRAMAR MCAS   CLEAR     63  59  87 CALM      29.94R                  
MONTGOMERY FLD CLEAR     68  61  78 CALM      29.95R                  
GILLESPIE FLD  FAIR      66  61  82 W5        29.93S                  
LEMON GROVE      N/A     66  62  86 CALM      29.91R                  

$$

NORTH SAN DIEGO COUNTY
  
CITY           SKY/WX    TMP DP  RH WIND       PRES   REMARKS
CAMP PENDLETON CLEAR     60  54  80 CALM      29.93R                  
OCEANSIDE AP   CLEAR     60  60 100 CALM      29.93R                  
OCEANSIDE HBR    N/A     67  63  87 CALM      30.00R                  
VISTA            N/A     64  59  83 CALM      29.91R                  
CARLSBAD       CLEAR     67  61  81 CALM      29.93R                  
ENCINITAS        N/A     64  60  90 CALM        N/A                   
LA JOLLA SCRIP   N/A     65  61  86 CALM      29.93R                  
FALLBROOK      FAIR      63  61  94 CALM      29.96R                  
ESCONDIDO        N/A     68  62  82 CALM      29.93R                  
SAN MARCOS       N/A     65  60  85 CALM      29.96R                  
RANCHO BERNARD   N/A     65  61  87 CALM      29.93R                  
POWAY            N/A     65  60  85 CALM      29.94R                  

$$

EAST SAN DIEGO COUNTY
  
CITY           SKY/WX    TMP DP  RH WIND       PRES   REMARKS
RAMONA         CLEAR     64  58  80 CALM      29.96R                  
LA MESA          N/A     65  60  83 CALM      29.88R                  
JAMUL            N/A     64  59  84 CALM      29.92R                  
DESCANSO N       N/A     63  34  34 E3        29.93R                  
CAMPO            N/A     65  50  58 N5        29.99R                  

$$

ORANGE COUNTY AND THE LOS ANGELES BASIN
  
CITY           SKY/WX    TMP DP  RH WIND       PRES   REMARKS
JOHN WAYNE AP  MOCLDY    68  62  81 S3        29.94R                  
LAGUNA BEACH     N/A     69  64  85 CALM      29.93R                  
LAKE FOREST FR   N/A     65  58  78 CALM      29.82R                  
FULLERTON      CLEAR     70  61  73 SE5       29.92R                  
LONG BEACH     CLEAR     67  62  84 W3        29.93R                  
L.A. AP        CLOUDY    63  60  90 W6        29.93R                  
L.A. DOWNTOWN  CLEAR     65  60  84 CALM      29.93R                  

$$

THE INLAND EMPIRE
  
CITY           SKY/WX    TMP DP  RH WIND       PRES   REMARKS
CORONA         CLEAR     68  62  81 VRB3      29.94R                  
UPLAND AP      FAIR      70  59  68 W5        29.96R                  
CHINO          CLEAR     71  58  63 W5        29.95R                  
ONTARIO        PTCLDY    72  58  61 W9        29.94R                  
SAN BERNARDINO FAIR      75  52  43 W6        29.94R                  
RIVERSIDE AP   CLEAR     72  56  57 W5        29.94R                  
MORENO VALLEY    N/A     71  53  53 CALM      29.88R                  
MARCH ARB      CLEAR     68  47  47 CALM      29.97R                  
HORSETHIEF CYN   N/A     71  57  60 CALM      29.91R                  
HEMET AP       FAIR      67  55  66 SW6       29.97R                  
FRENCH VALLEY  FAIR      68  57  68 CALM      29.97R                  
TEMECULA         N/A     68  60  76 SE2       29.94R                  

$$

SAN BERNARDINO AND RIVERSIDE COUNTY MOUNTAINS
  
CITY           SKY/WX    TMP DP  RH WIND       PRES   REMARKS
BIG BEAR AP    CLEAR     50  27  40 CALM      30.30R                  
BIG BEAR LAKE    N/A     54  22  28 CALM      29.94R                  
LK ARROWHEAD N   N/A     64  33  30 CALM      29.83R                  
WRIGHTWOOD       N/A     61  35  37 CALM      29.86R                  
IDYLLWILD        N/A     60  27  28 CALM      29.85R                  
TORO PEAK        N/A     61  23  23 SW18        N/A                   

$$

SOUTHERN DESERT INCLUDING THE COACHELLA VALLEY
  
CITY           SKY/WX    TMP DP  RH WIND       PRES   REMARKS
PALM SPRINGS   CLEAR     92  48  22 NW10      29.82R                  
THOUSAND PALMS   N/A     91  51  25 NW8       29.75R                  
PALM DESERT      N/A     91  52  26 CALM        N/A                   
INDIO            N/A     93  52  25 W8        29.77R                  
THERMAL        CLEAR     92  49  22 NW9       29.74R                  
BORREGO AP     FAIR      91  39  16 NW12      29.80R                  
OCOTILLO WELLS   N/A     98  35  11 N3        29.70R                  
CANEBRAKE        N/A     90  33  13 CALM      29.73R                  
BLYTHE         CLEAR     98  46  17 SW9       29.78R                  
IMPERIAL AP    CLEAR     89  62  40 CALM      29.75R                  
EL CENTRO NAS  CLEAR     90  56  31 S3        29.77R                  
YUMA AZ        CLEAR     92  50  23 SE12      29.78R                  

$$

UPPER DESERT
  
CITY           SKY/WX    TMP DP  RH WIND       PRES   REMARKS
HESPERIA         N/A     75  45  34 W5        29.85R                  
APPLE VALLEY     N/A     75  49  39 N3        29.88R                  
PALMDALE       CLEAR     77  38  24 S9        29.98R                  
LANCASTER      CLEAR     77  43  29 W9        29.97R                  
EDWARDS AFB    CLEAR     77  43  29 SW14      29.93R                  
GRAY BUTTE AP  FAIR      69  40  34 CALM      29.98R                  
DAGGETT        CLEAR     88  37  16 NW17G23   29.90R                  
29 PALMS N     CLEAR     86  29  12 NW8       29.98R                  
NEEDLES        PTCLDY    97  11   4 SW12      29.80R                  

$$

REGIONAL REPORTS
  
CITY           SKY/WX    TMP DP  RH WIND       PRES   REMARKS
SANTA BARBARA  CLEAR     60  57  89 CALM      29.91R                  
SANDBERG       CLEAR     73  40  30 W13       30.13R                  
LAS VEGAS NV   CLEAR     92  20   7 SW6       29.86R                  
PHOENIX AZ     PTCLDY    99  55  23 W10       29.81R HX  97           
ENSENADA NW      N/A     66  32  28 CALM      29.89R                  

$$

OFFSHORE ISLANDS
  
CITY           SKY/WX    TMP DP  RH WIND       PRES   REMARKS
CATALINA ARPT  CLEAR     70  55  59 SE6       29.98R                  
SAN CLEMENTE I   N/A     62  50  65 SW5       29.96R                  
SAN NICOLAS IS FOG       56  56 100 W5        29.94R VSB 3/4          

$$

MARINE AND OFFSHORE BUOY REPORTS
  
STATION/POSITION SKY/WX   TEMP    WIND        PRES    VSBY  SWELL
                          AIR SEA DIR/SP/G                  HT/PER/DIR
                          (F)     (DEG/KT/KT) (MB)    (MI)  (FT/S/D)
SAN NICOLAS IS.               61                N/A           2/170/14
S PEDRO CHANNEL               69                N/A           2/170/13
OCEANSIDE OFFSHR              71                N/A           2/190/14
TORREY PINES OTR              70                N/A           2/190/13
SAN DIEGO BAY                 72              1013.4R
POINT LOMA SOUTH              71                N/A           2/190/13

$$

  

SKY/WX - Weather  TMP - Temperature  DP - Dew Point  RH - Relative Humidity
WIND - Wind Direction/Speed PRES - Barometric Pressure VSB - Visibility
WCI - Wind Chill Index E13G22 Wind - East Wind 13 mph/Gusts of 22 mph
Carlsbad Weather Map
UTC Time: 7/10/2020, 06:21
Your Time: